Nampa, ID

9:41 PM MDT on May 28, 2017 (GMT -0600)
Nampa

Weather History for KMAN - November, 2013

Change the Weather History Date:

Wednesday, November 6, 2013

  Actual Average (KBOI) Record (KBOI)
Temperature  
Mean Temperature 40 °F -  
Max Temperature 44 °F 54 °F 78 °F (1999)
Min Temperature 35 °F 34 °F 12 °F (1895)
Degree Days  
Heating Degree Days 26    
Moisture  
Dew Point 38 °F    
Average Humidity 99    
Maximum Humidity 100    
Minimum Humidity 87    
Precipitation  
Precipitation 0.00 in - - ()
Sea Level Pressure  
Sea Level Pressure 30.36 in    
Wind  
Wind Speed 1 mph (NW)    
Max Wind Speed 6 mph    
Max Gust Speed -    
Visibility 4 miles    
Events      
Averages and records for this station are not official NWS values.
T = Trace of Precipitation, MM = Missing Value Source: NWS Daily Summary

Daily Weather History Graph

Daily Weather History Graph

Search for Another Location

Airport or City:

Trip Planner

Search our weather history database for the weather conditions in past years. The results will help you decide how hot, cold, wet, or windy it might be!

Date:

Astronomy

Nov. 06, 2013 Rise Set
Actual Time 7:28 AM MST 5:30 PM MST
Civil Twilight 6:58 AM MST 6:00 PM MST
Nautical Twilight 6:24 AM MST 6:34 PM MST
Astronomical Twilight 5:50 AM MST 7:08 PM MST
Moon 10:50 AM MST (11/6) 8:37 PM MST (11/6)
Length of Visible Light 11h 02m
Length of Day
10h 01m
Waxing Crescent, 14% of the Moon is Illuminated
Nov 6
Waxing Crescent
Nov 9
First Quarter
Nov 17
Full
Nov 25
Last Quarter
Dec 2
New

Hourly Weather History & Observations

Time (MST) Temp. Windchill Dew Point Humidity Pressure Visibility Wind Dir Wind Speed Gust Speed Precip Events Conditions
12:15 AM 35.6 °F - 35.6 °F 100% 30.30 in 5.0 mi Calm Calm - N/A   Overcast
12:35 AM 35.6 °F 31.7 °F 35.6 °F 100% 30.31 in 6.0 mi NW 4.6 mph - N/A   Overcast
12:55 AM 35.6 °F - 35.6 °F 100% 30.31 in 5.0 mi Calm Calm - N/A   Overcast
1:15 AM 35.6 °F 32.8 °F 35.6 °F 100% 30.31 in 5.0 mi NW 3.5 mph - N/A   Overcast
1:35 AM 35.6 °F - 35.6 °F 100% 30.31 in 3.0 mi Calm Calm - N/A   Overcast
1:55 AM 35.6 °F - 35.6 °F 100% 30.31 in 3.0 mi Calm Calm - N/A   Overcast
2:15 AM 35.6 °F - 35.6 °F 100% 30.31 in 3.0 mi Calm Calm - N/A   Overcast
2:35 AM 35.6 °F 30.7 °F 35.6 °F 100% 30.32 in 4.0 mi WNW 5.8 mph - N/A   Overcast
2:55 AM 35.6 °F 30.7 °F 35.6 °F 100% 30.33 in 5.0 mi WNW 5.8 mph - N/A   Overcast
3:15 AM 35.6 °F - 35.6 °F 100% 30.33 in 3.0 mi Calm Calm - N/A   Overcast
3:35 AM 35.6 °F 32.8 °F 35.6 °F 100% 30.32 in 3.0 mi West 3.5 mph - N/A   Overcast
3:55 AM 35.6 °F 32.8 °F 35.6 °F 100% 30.32 in 5.0 mi WNW 3.5 mph - N/A   Overcast
4:15 AM 35.6 °F - 35.6 °F 100% 30.33 in 5.0 mi Calm Calm - N/A   Unknown
4:35 AM 35.6 °F - 35.6 °F 100% 30.33 in 3.0 mi Calm Calm - N/A   Unknown
4:55 AM 35.6 °F - 35.6 °F 100% 30.33 in 4.0 mi Calm Calm - N/A   Unknown
5:15 AM 35.6 °F - 35.6 °F 100% 30.34 in 5.0 mi Calm Calm - N/A   Unknown
5:35 AM 35.6 °F - 35.6 °F 100% 30.34 in 3.0 mi Calm Calm - N/A   Overcast
5:55 AM 35.6 °F - 35.6 °F 100% 30.34 in 1.8 mi Calm Calm - N/A   Overcast
6:15 AM 35.6 °F 31.7 °F 35.6 °F 100% 30.35 in 1.0 mi WNW 4.6 mph - N/A   Overcast
6:35 AM 35.6 °F 32.8 °F 35.6 °F 100% 30.35 in 0.8 mi West 3.5 mph - N/A   Overcast
6:55 AM 35.6 °F - 35.6 °F 100% 30.36 in 0.5 mi Calm Calm - N/A   Unknown
7:15 AM 35.6 °F - 35.6 °F 100% 30.35 in 0.8 mi Calm Calm - N/A   Unknown
7:35 AM 35.6 °F - 35.6 °F 100% 30.36 in 0.5 mi Calm Calm - N/A   Overcast
7:55 AM 35.6 °F - 35.6 °F 100% 30.37 in 1.5 mi Calm Calm - N/A   Overcast
8:15 AM 35.6 °F 32.8 °F 35.6 °F 100% 30.38 in 2.5 mi WSW 3.5 mph - N/A   Overcast
8:35 AM 35.6 °F 32.8 °F 35.6 °F 100% 30.38 in 2.5 mi WSW 3.5 mph - N/A   Overcast
8:55 AM 35.6 °F - 35.6 °F 100% 30.39 in 3.0 mi Calm Calm - N/A   Overcast
9:15 AM 35.6 °F 32.8 °F 35.6 °F 100% 30.39 in 4.0 mi SW 3.5 mph - N/A   Overcast
9:35 AM 35.6 °F - 35.6 °F 100% 30.40 in 3.0 mi Calm Calm - N/A   Overcast
9:55 AM 35.6 °F - 35.6 °F 100% 30.40 in 4.0 mi Calm Calm - N/A   Overcast
10:15 AM 37.4 °F - 37.4 °F 100% 30.40 in 5.0 mi Calm Calm - N/A   Overcast
10:35 AM 37.4 °F - 37.4 °F 100% 30.40 in 5.0 mi Calm Calm - N/A   Overcast
10:55 AM 37.4 °F - 37.4 °F 100% 30.40 in 5.0 mi Calm Calm - N/A   Overcast
11:15 AM 37.4 °F - 37.4 °F 100% 30.41 in 5.0 mi Calm Calm - N/A   Overcast
11:35 AM 39.2 °F - 39.2 °F 100% 30.41 in 4.0 mi Calm Calm - N/A   Overcast
11:55 AM 39.2 °F 37.0 °F 39.2 °F 100% 30.41 in 3.0 mi NW 3.5 mph - N/A   Overcast
12:15 PM 39.2 °F - 39.2 °F 100% 30.41 in 2.0 mi Calm Calm - N/A   Overcast
12:35 PM 39.2 °F - 39.2 °F 100% 30.41 in 2.5 mi Calm Calm - N/A   Overcast
12:55 PM 39.2 °F - 39.2 °F 100% 30.40 in 2.0 mi Calm Calm - N/A   Overcast
1:15 PM 41.0 °F - 41.0 °F 100% 30.39 in 2.5 mi Calm Calm - N/A   Mostly Cloudy
1:35 PM 41.0 °F - 41.0 °F 100% 30.39 in 3.0 mi Calm Calm - N/A   Mostly Cloudy
1:55 PM 42.8 °F - 41.0 °F 93% 30.38 in 4.0 mi Calm Calm - N/A   Mostly Cloudy
2:15 PM 44.6 °F - 41.0 °F 87% 30.38 in 4.0 mi Calm Calm - N/A   Mostly Cloudy
2:35 PM 44.6 °F - 41.0 °F 87% 30.38 in 4.0 mi Calm Calm - N/A   Scattered Clouds
2:55 PM 44.6 °F 42.2 °F 41.0 °F 87% 30.38 in 4.0 mi North 4.6 mph - N/A   Mostly Cloudy
3:15 PM 42.8 °F 40.1 °F 41.0 °F 93% 30.37 in 3.0 mi North 4.6 mph - N/A   Overcast
3:35 PM 42.8 °F - 41.0 °F 93% 30.37 in 3.0 mi Calm Calm - N/A   Overcast
3:55 PM 44.6 °F 43.1 °F 41.0 °F 87% 30.37 in 3.0 mi North 3.5 mph - N/A   Overcast
4:15 PM 42.8 °F 40.1 °F 41.0 °F 93% 30.37 in 2.0 mi NNW 4.6 mph - N/A   Mostly Cloudy
4:35 PM 42.8 °F 40.1 °F 41.0 °F 93% 30.37 in 2.0 mi North 4.6 mph - N/A   Mostly Cloudy
4:55 PM 42.8 °F - 41.0 °F 93% 30.37 in 4.0 mi Calm Calm - N/A   Overcast
5:15 PM 42.8 °F - 41.0 °F 93% 30.35 in 4.0 mi Calm Calm - N/A   Mostly Cloudy
5:35 PM 41.0 °F - 41.0 °F 100% 30.34 in 4.0 mi Calm Calm - N/A   Partly Cloudy
5:55 PM 41.0 °F - 41.0 °F 100% 30.35 in 3.0 mi Calm Calm - N/A   Clear
6:15 PM 41.0 °F - 41.0 °F 100% 30.35 in 4.0 mi Calm Calm - N/A   Mostly Cloudy
6:35 PM 41.0 °F - 41.0 °F 100% 30.36 in 4.0 mi Calm Calm - N/A   Overcast
6:55 PM 41.0 °F - 41.0 °F 100% 30.37 in 4.0 mi Calm Calm - N/A   Overcast
7:15 PM 41.0 °F - 41.0 °F 100% 30.36 in 7.0 mi Calm Calm - N/A   Mostly Cloudy
7:35 PM 41.0 °F 39.0 °F 41.0 °F 100% 30.36 in 10.0 mi North 3.5 mph - N/A   Mostly Cloudy
7:55 PM 41.0 °F - 41.0 °F 100% 30.35 in 8.0 mi Calm Calm - N/A   Overcast
8:15 PM 41.0 °F - 41.0 °F 100% 30.35 in 8.0 mi Calm Calm - N/A   Mostly Cloudy
8:35 PM 41.0 °F - 41.0 °F 100% 30.36 in 8.0 mi Calm Calm - N/A   Mostly Cloudy
8:55 PM 41.0 °F - 41.0 °F 100% 30.35 in 8.0 mi Calm Calm - N/A   Overcast
9:15 PM 41.0 °F - 41.0 °F 100% 30.36 in 8.0 mi Calm Calm - N/A   Overcast
9:35 PM 41.0 °F - 41.0 °F 100% 30.36 in 8.0 mi Calm Calm - N/A   Overcast
9:55 PM 39.2 °F - 39.2 °F 100% 30.35 in 5.0 mi Calm Calm - N/A   Overcast
10:15 PM 39.2 °F - 39.2 °F 100% 30.35 in 3.0 mi Calm Calm - N/A   Overcast
10:35 PM 39.2 °F - 39.2 °F 100% 30.35 in 3.0 mi Calm Calm - N/A   Overcast
10:55 PM 39.2 °F - 39.2 °F 100% 30.34 in 2.5 mi Calm Calm - N/A   Overcast
11:15 PM 39.2 °F - 39.2 °F 100% 30.34 in 2.5 mi Calm Calm - N/A   Overcast
11:35 PM 39.2 °F - 39.2 °F 100% 30.32 in 2.5 mi Calm Calm - N/A   Overcast
11:55 PM 39.2 °F - 39.2 °F 100% 30.31 in 2.5 mi Calm Calm - N/A   Mostly Cloudy